,Coso Junction,Coso Junction
,PM10_1HR,PM10_1HR
,,
Date,Value,Null Code
01-Aug-2018 00:00,30.5,
01-Aug-2018 01:00,26.9,
01-Aug-2018 02:00,30.6,
01-Aug-2018 03:00,32.3,
01-Aug-2018 04:00,35,
01-Aug-2018 05:00,33.1,
01-Aug-2018 06:00,34.8,
01-Aug-2018 07:00,33.6,
01-Aug-2018 08:00,31.9,
01-Aug-2018 09:00,33,
01-Aug-2018 10:00,44.7,
01-Aug-2018 11:00,43.5,
01-Aug-2018 12:00,38.8,
01-Aug-2018 13:00,31.5,
01-Aug-2018 14:00,35.8,
01-Aug-2018 15:00,39,
01-Aug-2018 16:00,38.1,
01-Aug-2018 17:00,37.6,
01-Aug-2018 18:00,40.9,
01-Aug-2018 19:00,43.6,
01-Aug-2018 20:00,34.3,
01-Aug-2018 21:00,19.6,
01-Aug-2018 22:00,18.8,
01-Aug-2018 23:00,17.5,
02-Aug-2018 00:00,18.4,
02-Aug-2018 01:00,18.7,
02-Aug-2018 02:00,17.9,
02-Aug-2018 03:00,18.8,
02-Aug-2018 04:00,22.3,
02-Aug-2018 05:00,18.5,
02-Aug-2018 06:00,19.6,
02-Aug-2018 07:00,21.3,
02-Aug-2018 08:00,20,
02-Aug-2018 09:00,19.9,
02-Aug-2018 10:00,26.9,
02-Aug-2018 11:00,38,
02-Aug-2018 12:00,35.6,
02-Aug-2018 13:00,34.8,
02-Aug-2018 14:00,32.2,
02-Aug-2018 15:00,35.3,
02-Aug-2018 16:00,28.8,
02-Aug-2018 17:00,29.9,
02-Aug-2018 18:00,30.3,
02-Aug-2018 19:00,31.1,
02-Aug-2018 20:00,36.4,
02-Aug-2018 21:00,36.9,
02-Aug-2018 22:00,32.9,
02-Aug-2018 23:00,34,
03-Aug-2018 00:00,33.7,
03-Aug-2018 01:00,34.2,
03-Aug-2018 02:00,33.8,
03-Aug-2018 03:00,32.2,
03-Aug-2018 04:00,32,
03-Aug-2018 05:00,50.5,
03-Aug-2018 06:00,42.1,
03-Aug-2018 07:00,39,
03-Aug-2018 08:00,59.5,
03-Aug-2018 09:00,28.4,
03-Aug-2018 10:00,32.5,
03-Aug-2018 11:00,27.4,
03-Aug-2018 12:00,27.6,
03-Aug-2018 13:00,29.2,
03-Aug-2018 14:00,50.6,
03-Aug-2018 15:00,37.1,
03-Aug-2018 16:00,25.3,
03-Aug-2018 17:00,23.7,
03-Aug-2018 18:00,16.4,
03-Aug-2018 19:00,18.2,
03-Aug-2018 20:00,27.8,
03-Aug-2018 21:00,26,
03-Aug-2018 22:00,26.9,
03-Aug-2018 23:00,24.8,
04-Aug-2018 00:00,25.4,
04-Aug-2018 01:00,30.9,
04-Aug-2018 02:00,29.3,
04-Aug-2018 03:00,30.1,
04-Aug-2018 04:00,37.8,
04-Aug-2018 05:00,73.9,
04-Aug-2018 06:00,191.7,
04-Aug-2018 07:00,180.7,
04-Aug-2018 08:00,162.8,
04-Aug-2018 09:00,148,
04-Aug-2018 10:00,128.4,
04-Aug-2018 11:00,82.1,
04-Aug-2018 12:00,68.2,
04-Aug-2018 13:00,48.9,
04-Aug-2018 14:00,79,
04-Aug-2018 15:00,65.8,
04-Aug-2018 16:00,18.4,
04-Aug-2018 17:00,104.6,
04-Aug-2018 18:00,91.2,
04-Aug-2018 19:00,25.9,
04-Aug-2018 20:00,19.6,
04-Aug-2018 21:00,17.1,
04-Aug-2018 22:00,21.2,
04-Aug-2018 23:00,18.8,
05-Aug-2018 00:00,16.6,
05-Aug-2018 01:00,17.1,
05-Aug-2018 02:00,12.9,
05-Aug-2018 03:00,11.6,
05-Aug-2018 04:00,17.1,
05-Aug-2018 05:00,16.3,
05-Aug-2018 06:00,20.9,
05-Aug-2018 07:00,14.6,
05-Aug-2018 08:00,8.9,
05-Aug-2018 09:00,10.7,
05-Aug-2018 10:00,12.5,
05-Aug-2018 11:00,20.2,
05-Aug-2018 12:00,17,
05-Aug-2018 13:00,16.2,
05-Aug-2018 14:00,14.4,
05-Aug-2018 15:00,12.5,
05-Aug-2018 16:00,17.6,
05-Aug-2018 17:00,18,
05-Aug-2018 18:00,10.9,
05-Aug-2018 19:00,13.2,
05-Aug-2018 20:00,38,
05-Aug-2018 21:00,27.1,
05-Aug-2018 22:00,25.1,
05-Aug-2018 23:00,25.7,
06-Aug-2018 00:00,21.5,
06-Aug-2018 01:00,19.1,
06-Aug-2018 02:00,29,
06-Aug-2018 03:00,53.6,
06-Aug-2018 04:00,65.4,
06-Aug-2018 05:00,79.2,
06-Aug-2018 06:00,90.4,
06-Aug-2018 07:00,114.5,
06-Aug-2018 08:00,124.2,
06-Aug-2018 09:00,129.4,
06-Aug-2018 10:00,105.8,
06-Aug-2018 11:00,61.2,
06-Aug-2018 12:00,45.7,
06-Aug-2018 13:00,46.6,
06-Aug-2018 14:00,40.6,
06-Aug-2018 15:00,34.3,
06-Aug-2018 16:00,32.2,
06-Aug-2018 17:00,29.9,
06-Aug-2018 18:00,41.5,
06-Aug-2018 19:00,26.9,
06-Aug-2018 20:00,41.3,
06-Aug-2018 21:00,36.7,
06-Aug-2018 22:00,31.6,
06-Aug-2018 23:00,33.8,
07-Aug-2018 00:00,34.4,
07-Aug-2018 01:00,49.4,
07-Aug-2018 02:00,57.5,
07-Aug-2018 03:00,36.4,
07-Aug-2018 04:00,33.9,
07-Aug-2018 05:00,29.3,
07-Aug-2018 06:00,31.7,
07-Aug-2018 07:00,46.9,
07-Aug-2018 08:00,49.7,
07-Aug-2018 09:00,46.4,
07-Aug-2018 10:00,36,
07-Aug-2018 11:00,32.6,
07-Aug-2018 12:00,35.1,
07-Aug-2018 13:00,33.1,
07-Aug-2018 14:00,45.6,
07-Aug-2018 15:00,41.5,
07-Aug-2018 16:00,38.7,
07-Aug-2018 17:00,39.7,
07-Aug-2018 18:00,41.3,
07-Aug-2018 19:00,40.5,
07-Aug-2018 20:00,42,
07-Aug-2018 21:00,42.7,
07-Aug-2018 22:00,34.4,
07-Aug-2018 23:00,32.3,
08-Aug-2018 00:00,32.2,
08-Aug-2018 01:00,30.8,
08-Aug-2018 02:00,28.1,
08-Aug-2018 03:00,33.5,
08-Aug-2018 04:00,32.6,
08-Aug-2018 05:00,31.5,
08-Aug-2018 06:00,35.3,
08-Aug-2018 07:00,38.1,
08-Aug-2018 08:00,41,
08-Aug-2018 09:00,39.6,
08-Aug-2018 10:00,33.9,
08-Aug-2018 11:00,31,
08-Aug-2018 12:00,21.9,
08-Aug-2018 13:00,22.2,
08-Aug-2018 14:00,24.6,
08-Aug-2018 15:00,23.5,
08-Aug-2018 16:00,24.2,
08-Aug-2018 17:00,26.7,
08-Aug-2018 18:00,35,
08-Aug-2018 19:00,36.8,
08-Aug-2018 20:00,38.9,
08-Aug-2018 21:00,33.7,
08-Aug-2018 22:00,32.5,
08-Aug-2018 23:00,33.4,
09-Aug-2018 00:00,34.3,
09-Aug-2018 01:00,39.3,
09-Aug-2018 02:00,34.8,
09-Aug-2018 03:00,35.3,
09-Aug-2018 04:00,38.4,
09-Aug-2018 05:00,42.4,
09-Aug-2018 06:00,30.2,
09-Aug-2018 07:00,28.6,
09-Aug-2018 08:00,34.3,
09-Aug-2018 09:00,27.6,
09-Aug-2018 10:00,31.6,
09-Aug-2018 11:00,23.7,
09-Aug-2018 12:00,34.6,
09-Aug-2018 13:00,34.3,
09-Aug-2018 14:00,38.7,
09-Aug-2018 15:00,26.7,
09-Aug-2018 16:00,38.3,
09-Aug-2018 17:00,39.7,
09-Aug-2018 18:00,35.8,
09-Aug-2018 19:00,30.4,
09-Aug-2018 20:00,39.8,
09-Aug-2018 21:00,36.8,
09-Aug-2018 22:00,34.1,
09-Aug-2018 23:00,43.2,
10-Aug-2018 00:00,33.5,
10-Aug-2018 01:00,37.7,
10-Aug-2018 02:00,40.8,
10-Aug-2018 03:00,38.6,
10-Aug-2018 04:00,41,
10-Aug-2018 05:00,41,
10-Aug-2018 06:00,44.2,
10-Aug-2018 07:00,43.4,
10-Aug-2018 08:00,41.5,
10-Aug-2018 09:00,46.4,
10-Aug-2018 10:00,39.4,
10-Aug-2018 11:00,41,
10-Aug-2018 12:00,34.5,
10-Aug-2018 13:00,36.5,
10-Aug-2018 14:00,47.1,
10-Aug-2018 15:00,41.7,
10-Aug-2018 16:00,41.2,
10-Aug-2018 17:00,48.3,
10-Aug-2018 18:00,61.9,
10-Aug-2018 19:00,54.2,
10-Aug-2018 20:00,56.3,
10-Aug-2018 21:00,54.4,
10-Aug-2018 22:00,84.5,
10-Aug-2018 23:00,51.4,
11-Aug-2018 00:00,51,
11-Aug-2018 01:00,50,
11-Aug-2018 02:00,50,
11-Aug-2018 03:00,48.8,
11-Aug-2018 04:00,48.7,
11-Aug-2018 05:00,50.9,
11-Aug-2018 06:00,72.9,
11-Aug-2018 07:00,48.7,
11-Aug-2018 08:00,44.5,
11-Aug-2018 09:00,46.3,
11-Aug-2018 10:00,54.6,
11-Aug-2018 11:00,45.3,
11-Aug-2018 12:00,43.7,
11-Aug-2018 13:00,46.7,
11-Aug-2018 14:00,43.5,
11-Aug-2018 15:00,40.9,
11-Aug-2018 16:00,38.2,
11-Aug-2018 17:00,40.4,
11-Aug-2018 18:00,39.5,
11-Aug-2018 19:00,37.5,
11-Aug-2018 20:00,41.6,
11-Aug-2018 21:00,37.3,
11-Aug-2018 22:00,52.1,
11-Aug-2018 23:00,38.8,
12-Aug-2018 00:00,38.9,
12-Aug-2018 01:00,38.1,
12-Aug-2018 02:00,40.3,
12-Aug-2018 03:00,37.8,
12-Aug-2018 04:00,46.2,
12-Aug-2018 05:00,44.1,
12-Aug-2018 06:00,43.4,
12-Aug-2018 07:00,53.6,
12-Aug-2018 08:00,71.6,
12-Aug-2018 09:00,64,
12-Aug-2018 10:00,52.9,
12-Aug-2018 11:00,43.3,
12-Aug-2018 12:00,39.2,
12-Aug-2018 13:00,39.2,
12-Aug-2018 14:00,43,
12-Aug-2018 15:00,55.4,
12-Aug-2018 16:00,18.9,
12-Aug-2018 17:00,26.1,
12-Aug-2018 18:00,24.7,
12-Aug-2018 19:00,30.6,
12-Aug-2018 20:00,26.2,
12-Aug-2018 21:00,35.5,
12-Aug-2018 22:00,35.3,
12-Aug-2018 23:00,38,
13-Aug-2018 00:00,34.6,
13-Aug-2018 01:00,35.6,
13-Aug-2018 02:00,39.1,
13-Aug-2018 03:00,38.4,
13-Aug-2018 04:00,34.3,
13-Aug-2018 05:00,51.8,
13-Aug-2018 06:00,35.2,
13-Aug-2018 07:00,28.9,
13-Aug-2018 08:00,28.3,
13-Aug-2018 09:00,33.7,
13-Aug-2018 10:00,31.8,
13-Aug-2018 11:00,29.1,
13-Aug-2018 12:00,32.8,
13-Aug-2018 13:00,35.9,
13-Aug-2018 14:00,33.4,
13-Aug-2018 15:00,26.6,
13-Aug-2018 16:00,22.6,
13-Aug-2018 17:00,26.6,
13-Aug-2018 18:00,26.3,
13-Aug-2018 19:00,29,
13-Aug-2018 20:00,30.7,
13-Aug-2018 21:00,31,
13-Aug-2018 22:00,30.1,
13-Aug-2018 23:00,26.8,
14-Aug-2018 00:00,26.5,
14-Aug-2018 01:00,28,
14-Aug-2018 02:00,40.3,
14-Aug-2018 03:00,44.2,
14-Aug-2018 04:00,23.7,
14-Aug-2018 05:00,30.4,
14-Aug-2018 06:00,31.8,
14-Aug-2018 07:00,24.3,
14-Aug-2018 08:00,22.1,
14-Aug-2018 09:00,21.2,
14-Aug-2018 10:00,16.1,
14-Aug-2018 11:00,21.4,
14-Aug-2018 12:00,22,
14-Aug-2018 13:00,13.2,
14-Aug-2018 14:00,16.7,
14-Aug-2018 15:00,19.1,
14-Aug-2018 16:00,17.3,
14-Aug-2018 17:00,16.2,
14-Aug-2018 18:00,24.3,
14-Aug-2018 19:00,34.1,
14-Aug-2018 20:00,32,
14-Aug-2018 21:00,32.4,
14-Aug-2018 22:00,31.6,
14-Aug-2018 23:00,26,
15-Aug-2018 00:00,30.4,
15-Aug-2018 01:00,24.3,
15-Aug-2018 02:00,22.2,
15-Aug-2018 03:00,20.8,
15-Aug-2018 04:00,20.3,
15-Aug-2018 05:00,33.9,
15-Aug-2018 06:00,26.4,
15-Aug-2018 07:00,24,
15-Aug-2018 08:00,20.9,
15-Aug-2018 09:00,24.6,
15-Aug-2018 10:00,21.8,
15-Aug-2018 11:00,17.6,
15-Aug-2018 12:00,20.8,
15-Aug-2018 13:00,16.7,
15-Aug-2018 14:00,25.8,
15-Aug-2018 15:00,17.8,
15-Aug-2018 16:00,98.3,
15-Aug-2018 17:00,26.5,
15-Aug-2018 18:00,28.6,
15-Aug-2018 19:00,37.2,
15-Aug-2018 20:00,27.4,
15-Aug-2018 21:00,28.4,
15-Aug-2018 22:00,29.1,
15-Aug-2018 23:00,38.9,
16-Aug-2018 00:00,33.7,
16-Aug-2018 01:00,42.5,
16-Aug-2018 02:00,36.1,
16-Aug-2018 03:00,32.6,
16-Aug-2018 04:00,36.7,
16-Aug-2018 05:00,,AX
16-Aug-2018 06:00,,BJ
16-Aug-2018 07:00,,BJ
16-Aug-2018 08:00,,BJ
16-Aug-2018 09:00,,BJ
16-Aug-2018 10:00,,BJ
16-Aug-2018 11:00,,BJ
16-Aug-2018 12:00,,BJ
16-Aug-2018 13:00,,BJ
16-Aug-2018 14:00,,BJ
16-Aug-2018 15:00,,BJ
16-Aug-2018 16:00,,BJ
16-Aug-2018 17:00,,BJ
16-Aug-2018 18:00,,BJ
16-Aug-2018 19:00,,BJ
16-Aug-2018 20:00,,BJ
16-Aug-2018 21:00,,BJ
16-Aug-2018 22:00,,BJ
16-Aug-2018 23:00,,BJ
17-Aug-2018 00:00,,BJ
17-Aug-2018 01:00,,BJ
17-Aug-2018 02:00,,BJ
17-Aug-2018 03:00,,BJ
17-Aug-2018 04:00,,BJ
17-Aug-2018 05:00,,BJ
17-Aug-2018 06:00,,BJ
17-Aug-2018 07:00,,BJ
17-Aug-2018 08:00,,BJ
17-Aug-2018 09:00,,BJ
17-Aug-2018 10:00,,BJ
17-Aug-2018 11:00,,BJ
17-Aug-2018 12:00,,BJ
17-Aug-2018 13:00,,BJ
17-Aug-2018 14:00,,BJ
17-Aug-2018 15:00,,BJ
17-Aug-2018 16:00,,BJ
17-Aug-2018 17:00,,BJ
17-Aug-2018 18:00,,BJ
17-Aug-2018 19:00,,BJ
17-Aug-2018 20:00,,BJ
17-Aug-2018 21:00,,BJ
17-Aug-2018 22:00,,BJ
17-Aug-2018 23:00,,BJ
18-Aug-2018 00:00,,BJ
18-Aug-2018 01:00,,BJ
18-Aug-2018 02:00,,BJ
18-Aug-2018 03:00,,BJ
18-Aug-2018 04:00,,BJ
18-Aug-2018 05:00,,BJ
18-Aug-2018 06:00,,BJ
18-Aug-2018 07:00,,BJ
18-Aug-2018 08:00,,BJ
18-Aug-2018 09:00,,BJ
18-Aug-2018 10:00,,BJ
18-Aug-2018 11:00,,BJ
18-Aug-2018 12:00,,BJ
18-Aug-2018 13:00,,BJ
18-Aug-2018 14:00,,BJ
18-Aug-2018 15:00,,BJ
18-Aug-2018 16:00,,BJ
18-Aug-2018 17:00,,BJ
18-Aug-2018 18:00,,BJ
18-Aug-2018 19:00,,BJ
18-Aug-2018 20:00,,BJ
18-Aug-2018 21:00,,BJ
18-Aug-2018 22:00,,BJ
18-Aug-2018 23:00,,BJ
19-Aug-2018 00:00,,BJ
19-Aug-2018 01:00,,BJ
19-Aug-2018 02:00,,BJ
19-Aug-2018 03:00,,BJ
19-Aug-2018 04:00,,BJ
19-Aug-2018 05:00,,BJ
19-Aug-2018 06:00,,BJ
19-Aug-2018 07:00,,BJ
19-Aug-2018 08:00,,BJ
19-Aug-2018 09:00,,BJ
19-Aug-2018 10:00,,BJ
19-Aug-2018 11:00,,BJ
19-Aug-2018 12:00,,BJ
19-Aug-2018 13:00,,BJ
19-Aug-2018 14:00,,BJ
19-Aug-2018 15:00,,BJ
19-Aug-2018 16:00,,BJ
19-Aug-2018 17:00,,BJ
19-Aug-2018 18:00,,BJ
19-Aug-2018 19:00,,BJ
19-Aug-2018 20:00,,BJ
19-Aug-2018 21:00,,BJ
19-Aug-2018 22:00,,BJ
19-Aug-2018 23:00,,BJ
20-Aug-2018 00:00,,BJ
20-Aug-2018 01:00,,BJ
20-Aug-2018 02:00,,BJ
20-Aug-2018 03:00,,BJ
20-Aug-2018 04:00,,BJ
20-Aug-2018 05:00,,BJ
20-Aug-2018 06:00,,BJ
20-Aug-2018 07:00,,BJ
20-Aug-2018 08:00,,BJ
20-Aug-2018 09:00,,BJ
20-Aug-2018 10:00,,BJ
20-Aug-2018 11:00,,BJ
20-Aug-2018 12:00,,BJ
20-Aug-2018 13:00,,BJ
20-Aug-2018 14:00,,BJ
20-Aug-2018 15:00,,BJ
20-Aug-2018 16:00,,BJ
20-Aug-2018 17:00,,BJ
20-Aug-2018 18:00,,BJ
20-Aug-2018 19:00,,BJ
20-Aug-2018 20:00,,BJ
20-Aug-2018 21:00,,BJ
20-Aug-2018 22:00,,BJ
20-Aug-2018 23:00,,BJ
21-Aug-2018 00:00,,BJ
21-Aug-2018 01:00,,BJ
21-Aug-2018 02:00,,BJ
21-Aug-2018 03:00,,BJ
21-Aug-2018 04:00,,BJ
21-Aug-2018 05:00,,BJ
21-Aug-2018 06:00,,BJ
21-Aug-2018 07:00,,BJ
21-Aug-2018 08:00,,BJ
21-Aug-2018 09:00,,BJ
21-Aug-2018 10:00,,BJ
21-Aug-2018 11:00,,BJ
21-Aug-2018 12:00,,BJ
21-Aug-2018 13:00,,BJ
21-Aug-2018 14:00,,BJ
21-Aug-2018 15:00,,BJ
21-Aug-2018 16:00,,BJ
21-Aug-2018 17:00,,BJ
21-Aug-2018 18:00,,BJ
21-Aug-2018 19:00,,BJ
21-Aug-2018 20:00,,BJ
21-Aug-2018 21:00,,BJ
21-Aug-2018 22:00,,BJ
21-Aug-2018 23:00,,BJ
22-Aug-2018 00:00,,BJ
22-Aug-2018 01:00,,BJ
22-Aug-2018 02:00,,BJ
22-Aug-2018 03:00,,BJ
22-Aug-2018 04:00,,BJ
22-Aug-2018 05:00,,BJ
22-Aug-2018 06:00,,BJ
22-Aug-2018 07:00,,BA
22-Aug-2018 08:00,44.5,
22-Aug-2018 09:00,30.4,
22-Aug-2018 10:00,26.5,
22-Aug-2018 11:00,23.2,
22-Aug-2018 12:00,31.8,
22-Aug-2018 13:00,50.3,
22-Aug-2018 14:00,33.9,
22-Aug-2018 15:00,26.2,
22-Aug-2018 16:00,17.1,
22-Aug-2018 17:00,23.2,
22-Aug-2018 18:00,21.6,
22-Aug-2018 19:00,19,
22-Aug-2018 20:00,18.9,
22-Aug-2018 21:00,23.4,
22-Aug-2018 22:00,22.6,
22-Aug-2018 23:00,21.2,
23-Aug-2018 00:00,22.4,
23-Aug-2018 01:00,23.1,
23-Aug-2018 02:00,22,
23-Aug-2018 03:00,27.1,
23-Aug-2018 04:00,27.8,
23-Aug-2018 05:00,43,
23-Aug-2018 06:00,26.8,
23-Aug-2018 07:00,24.9,
23-Aug-2018 08:00,19.9,
23-Aug-2018 09:00,18.5,
23-Aug-2018 10:00,22.7,
23-Aug-2018 11:00,19.8,
23-Aug-2018 12:00,26.9,
23-Aug-2018 13:00,33.7,
23-Aug-2018 14:00,25,
23-Aug-2018 15:00,23.7,
23-Aug-2018 16:00,23.1,
23-Aug-2018 17:00,27.5,
23-Aug-2018 18:00,44.8,
23-Aug-2018 19:00,20.4,
23-Aug-2018 20:00,25.5,
23-Aug-2018 21:00,27.3,
23-Aug-2018 22:00,27.3,
23-Aug-2018 23:00,26.9,
24-Aug-2018 00:00,23.7,
24-Aug-2018 01:00,24.3,
24-Aug-2018 02:00,24.6,
24-Aug-2018 03:00,29.3,
24-Aug-2018 04:00,22.9,
24-Aug-2018 05:00,26.1,
24-Aug-2018 06:00,25.2,
24-Aug-2018 07:00,27.2,
24-Aug-2018 08:00,27.9,
24-Aug-2018 09:00,26.6,
24-Aug-2018 10:00,28.7,
24-Aug-2018 11:00,25.9,
24-Aug-2018 12:00,26.8,
24-Aug-2018 13:00,32.4,
24-Aug-2018 14:00,40.1,
24-Aug-2018 15:00,30.4,
24-Aug-2018 16:00,28.7,
24-Aug-2018 17:00,22.7,
24-Aug-2018 18:00,7.3,
24-Aug-2018 19:00,15,
24-Aug-2018 20:00,42.6,
24-Aug-2018 21:00,44.3,
24-Aug-2018 22:00,37.8,
24-Aug-2018 23:00,34.8,
25-Aug-2018 00:00,30.4,
25-Aug-2018 01:00,29.1,
25-Aug-2018 02:00,30.1,
25-Aug-2018 03:00,33.6,
25-Aug-2018 04:00,28.1,
25-Aug-2018 05:00,29.3,
25-Aug-2018 06:00,31.8,
25-Aug-2018 07:00,31.1,
25-Aug-2018 08:00,27.9,
25-Aug-2018 09:00,29.9,
25-Aug-2018 10:00,30.8,
25-Aug-2018 11:00,26.9,
25-Aug-2018 12:00,28.4,
25-Aug-2018 13:00,28.3,
25-Aug-2018 14:00,31.9,
25-Aug-2018 15:00,33.2,
25-Aug-2018 16:00,30.5,
25-Aug-2018 17:00,27.1,
25-Aug-2018 18:00,35.3,
25-Aug-2018 19:00,32.4,
25-Aug-2018 20:00,33.6,
25-Aug-2018 21:00,35.5,
25-Aug-2018 22:00,34.7,
25-Aug-2018 23:00,33.6,
26-Aug-2018 00:00,33.5,
26-Aug-2018 01:00,34.2,
26-Aug-2018 02:00,32.9,
26-Aug-2018 03:00,33.6,
26-Aug-2018 04:00,30.8,
26-Aug-2018 05:00,35.9,
26-Aug-2018 06:00,37,
26-Aug-2018 07:00,32.9,
26-Aug-2018 08:00,29.1,
26-Aug-2018 09:00,29.9,
26-Aug-2018 10:00,35.1,
26-Aug-2018 11:00,36.5,
26-Aug-2018 12:00,31.1,
26-Aug-2018 13:00,37.7,
26-Aug-2018 14:00,35.8,
26-Aug-2018 15:00,18,
26-Aug-2018 16:00,21.6,
26-Aug-2018 17:00,20,
26-Aug-2018 18:00,42,
26-Aug-2018 19:00,13.1,
26-Aug-2018 20:00,18,
26-Aug-2018 21:00,18.4,
26-Aug-2018 22:00,18.4,
26-Aug-2018 23:00,15,
27-Aug-2018 00:00,13.8,
27-Aug-2018 01:00,13.7,
27-Aug-2018 02:00,11.3,
27-Aug-2018 03:00,15.7,
27-Aug-2018 04:00,23.2,
27-Aug-2018 05:00,21.1,
27-Aug-2018 06:00,20.2,
27-Aug-2018 07:00,17.4,
27-Aug-2018 08:00,19.4,
27-Aug-2018 09:00,21.1,
27-Aug-2018 10:00,25.3,
27-Aug-2018 11:00,25.6,
27-Aug-2018 12:00,29.4,
27-Aug-2018 13:00,28.7,
27-Aug-2018 14:00,20.6,
27-Aug-2018 15:00,22.4,
27-Aug-2018 16:00,54.3,
27-Aug-2018 17:00,49,
27-Aug-2018 18:00,87.8,
27-Aug-2018 19:00,32.2,
27-Aug-2018 20:00,15.6,
27-Aug-2018 21:00,29.8,
27-Aug-2018 22:00,29.6,
27-Aug-2018 23:00,25,
28-Aug-2018 00:00,20.2,
28-Aug-2018 01:00,21.7,
28-Aug-2018 02:00,20.1,
28-Aug-2018 03:00,19.7,
28-Aug-2018 04:00,27.5,
28-Aug-2018 05:00,34,
28-Aug-2018 06:00,26.6,
28-Aug-2018 07:00,21.7,
28-Aug-2018 08:00,20,
28-Aug-2018 09:00,25.3,
28-Aug-2018 10:00,29.8,
28-Aug-2018 11:00,30.6,
28-Aug-2018 12:00,26.2,
28-Aug-2018 13:00,21.9,
28-Aug-2018 14:00,23.1,
28-Aug-2018 15:00,25.2,
28-Aug-2018 16:00,25,
28-Aug-2018 17:00,27.5,
28-Aug-2018 18:00,23,
28-Aug-2018 19:00,23.3,
28-Aug-2018 20:00,34.3,
28-Aug-2018 21:00,28.4,
28-Aug-2018 22:00,25.7,
28-Aug-2018 23:00,23.4,
29-Aug-2018 00:00,24.7,
29-Aug-2018 01:00,26.2,
29-Aug-2018 02:00,24.3,
29-Aug-2018 03:00,25.1,
29-Aug-2018 04:00,70.1,
29-Aug-2018 05:00,35.5,
29-Aug-2018 06:00,26.9,
29-Aug-2018 07:00,31.6,
29-Aug-2018 08:00,29.1,
29-Aug-2018 09:00,29.7,
29-Aug-2018 10:00,28.2,
29-Aug-2018 11:00,28.5,
29-Aug-2018 12:00,25.7,
29-Aug-2018 13:00,27.7,
29-Aug-2018 14:00,29.5,
29-Aug-2018 15:00,18.8,
29-Aug-2018 16:00,14.2,
29-Aug-2018 17:00,12.2,
29-Aug-2018 18:00,17.3,
29-Aug-2018 19:00,17.6,
29-Aug-2018 20:00,20.3,
29-Aug-2018 21:00,18.6,
29-Aug-2018 22:00,18.2,
29-Aug-2018 23:00,17.3,
30-Aug-2018 00:00,15.3,
30-Aug-2018 01:00,16.9,
30-Aug-2018 02:00,15.7,
30-Aug-2018 03:00,16.6,
30-Aug-2018 04:00,18.8,
30-Aug-2018 05:00,20,
30-Aug-2018 06:00,18,
30-Aug-2018 07:00,16.1,
30-Aug-2018 08:00,11.1,
30-Aug-2018 09:00,12.8,
30-Aug-2018 10:00,11.8,
30-Aug-2018 11:00,9.3,
30-Aug-2018 12:00,7.4,
30-Aug-2018 13:00,8.8,
30-Aug-2018 14:00,19.1,
30-Aug-2018 15:00,16.6,
30-Aug-2018 16:00,9.8,
30-Aug-2018 17:00,11,
30-Aug-2018 18:00,6.7,
30-Aug-2018 19:00,23.8,
30-Aug-2018 20:00,24.6,
30-Aug-2018 21:00,24.8,
30-Aug-2018 22:00,22.7,
30-Aug-2018 23:00,25.2,
31-Aug-2018 00:00,19.2,
31-Aug-2018 01:00,19.5,
31-Aug-2018 02:00,17.7,
31-Aug-2018 03:00,18.6,
31-Aug-2018 04:00,25.4,
31-Aug-2018 05:00,52.4,
31-Aug-2018 06:00,21.3,
31-Aug-2018 07:00,17.6,
31-Aug-2018 08:00,14,
31-Aug-2018 09:00,12.6,
31-Aug-2018 10:00,12.8,
31-Aug-2018 11:00,13.8,
31-Aug-2018 12:00,19.8,
31-Aug-2018 13:00,19.6,
31-Aug-2018 14:00,25.9,
31-Aug-2018 15:00,28.6,
31-Aug-2018 16:00,34.8,
31-Aug-2018 17:00,38.9,
31-Aug-2018 18:00,43.6,
31-Aug-2018 19:00,27.1,
31-Aug-2018 20:00,33.4,
31-Aug-2018 21:00,31.7,
31-Aug-2018 22:00,32.5,
31-Aug-2018 23:00,23,
